RH
28 31 34 35 39 42 43 43 43 43 45 45 44 42 40 36 34 34 33 33 34 36 36 35 35 34 33 31 32 31 37 42
30 33 36 37 39 41 44 43 45 45 46 46 45 44 41 38 36 35 34 33 34 37 37 38 37 35 34 32 31 30 33 42
31 36 38 39 44 40 41 44 45 46 47 47 47 47 43 40 39 37 37 36 34 35 37 38 38 36 35 35 34 38 43 44
33 37 39 40 38 38 40 44 45 46 46 47 49 51 48 47 44 42 41 40 37 35 35 36 37 39 38 37 35 42 43 46
34 37 39 40 39 37 39 42 46 45 48 50 52 52 52 50 47 44 44 44 44 42 40 38 37 38 38 38 41 42 42 41
37 37 39 40 40 40 39 37 40 43 46 49 50 52 53 52 54 51 50 49 49 47 45 41 38 36 36 35 36 37 40 42
38 38 39 40 42 40 39 38 39 38 40 46 51 51 51 53 55 55 53 53 51 48 46 46 44 41 38 37 38 39 40 42
38 39 39 39 42 41 38 39 38 39 40 39 43 45 48 50 51 53 52 51 50 47 46 45 45 43 42 38 36 37 38 39
40 37 36 37 41 41 38 37 35 37 38 38 38 40 41 42 41 45 42 41 42 41 44 45 46 50 52 52 52 50 49 49
38 33 33 36 40 41 39 37 35 37 37 36 36 38 41 42 43 42 47 44 48 49 48 50 51 50 52 52 53 51 52 54
36 34 34 37 41 42 43 41 38 39 40 40 38 39 41 41 42 43 44 46 47 48 50 49 52 50 51 54 56 57 60 60
33 32 35 38 41 42 47 47 45 45 43 43 41 40 44 44 41 42 42 43 44 45 46 46 47 49 49 49 49 50 51 60
30 30 33 37 40 44 50 51 51 51 52 47 43 43 41 42 40 38 40 42 42 35 36 38 41 40 40 39 40 43 46 47
30 31 35 42 43 46 51 56 56 55 56 52 49 44 37 29 27 28 29 30 32 34 37 39 39 43 44 41 37 36 35 32
33 37 39 47 51 53 57 58 60 56 54 50 42 35 32 32 32 31 31 33 37 38 40 40 38 42 44 46 39 32 34 38
39 40 48 51 58 59 63 60 57 57 52 44 37 35 35 36 36 36 36 36 36 37 38 38 37 36 40 40 43 37 34 30
41 46 54 60 60 62 58 56 54 49 42 38 36 37 38 38 38 39 39 38 37 35 33 32 35 32 33 35 35 42 37 34
43 47 54 57 59 58 52 49 45 42 40 39 39 40 41 42 42 40 39 37 34 32 31 28 27 29 28 27 28 29 32 39
48 51 54 55 54 50 46 45 45 44 43 44 45 45 45 45 43 40 38 37 34 30 28 27 25 26 25 24 29 30 32 42
46 46 47 50 50 49 47 47 48 48 48 49 47 46 47 44 42 40 37 31 28 27 26 26 29 30 29 31 36 33 36 42